Klawock, AK

9:33 PM AKDT on September 25, 2016 (GMT -0800)
Klawock

Weather History for PAKW - August, 2013

Change the Weather History Date:

Thursday, August 1, 2013

  Actual Average Record
Temperature  
Mean Temperature 58 °F -  
Max Temperature 69 °F 63 °F 80 °F (1999)
Min Temperature 48 °F 49 °F 44 °F (1998)
Degree Days  
Heating Degree Days 6    
Growing Degree Days 8 (Base 50)    
Moisture  
Dew Point 52 °F    
Average Humidity 85    
Maximum Humidity 100    
Minimum Humidity 61    
Precipitation  
Precipitation 0.00 in - - ()
Sea Level Pressure  
Sea Level Pressure 30.03 in    
Wind  
Wind Speed 3 mph (SW)    
Max Wind Speed 9 mph    
Max Gust Speed -    
Visibility 10 miles    
Events      
Averages and records for this station are not official NWS values.
T = Trace of Precipitation, MM = Missing Value Source: NWS Daily Summary

Daily Weather History Graph

Daily Weather History Graph

Search for Another Location

Airport or City:

Trip Planner

Search our weather history database for the weather conditions in past years. The results will help you decide how hot, cold, wet, or windy it might be!

Date:

Astronomy

Aug. 01, 2013 Rise Set
Actual Time 4:59 AM AKDT 8:56 PM AKDT
Civil Twilight 4:11 AM AKDT 9:43 PM AKDT
Nautical Twilight 3:02 AM AKDT 10:52 PM AKDT
Astronomical Twilight 1:31 AM AKDT 12:26 AM AKDT
Moon 12:35 AM AKDT (8/1) 5:19 PM AKDT (8/1)
Length of Visible Light 17h 32m
Length of Day
15h 57m
Waning Crescent, 22% of the Moon is Illuminated
Aug 1
Waning Crescent
Aug 6
New
Aug 14
First Quarter
Aug 20
Full
Aug 28
Last Quarter

Hourly Weather History & Observations

Time (AKDT) Temp. Dew Point Humidity Pressure Visibility Wind Dir Wind Speed Gust Speed Precip Events Conditions
12:53 AM 52.0 °F 51.1 °F 97% 30.06 in 10.0 mi South 3.5 mph - N/A   Clear
1:53 AM 51.1 °F 50.0 °F 96% 30.05 in 10.0 mi Calm Calm - N/A   Clear
2:53 AM 50.0 °F 48.9 °F 96% 30.04 in 10.0 mi Calm Calm - N/A   Clear
3:53 AM 48.9 °F 48.0 °F 97% 30.04 in 10.0 mi Calm Calm - N/A   Clear
4:53 AM 48.9 °F 46.9 °F 93% 30.03 in 10.0 mi Calm Calm - N/A   Clear
5:03 AM 48.2 °F 46.4 °F 93% 30.03 in 10.0 mi Calm Calm - N/A   Scattered Clouds
5:11 AM 48.2 °F 48.2 °F 100% 30.03 in 10.0 mi Calm Calm - N/A   Mostly Cloudy
5:53 AM 53.1 °F 51.1 °F 93% 30.04 in 10.0 mi Calm Calm - N/A   Overcast
6:53 AM 54.0 °F 53.1 °F 97% 30.04 in 10.0 mi Calm Calm - N/A   Overcast
7:53 AM 55.0 °F 53.1 °F 93% 30.03 in 10.0 mi Calm Calm - N/A   Overcast
8:12 AM 57.2 °F 53.6 °F 88% 30.03 in 10.0 mi Calm Calm - N/A   Overcast
8:53 AM 57.9 °F 54.0 °F 87% 30.03 in 10.0 mi SSW 3.5 mph - N/A   Partly Cloudy
9:53 AM 60.1 °F 54.0 °F 80% 30.03 in 10.0 mi WSW 4.6 mph - N/A   Clear
10:53 AM 63.0 °F 55.0 °F 75% 30.03 in 10.0 mi WSW 5.8 mph - N/A   Clear
11:53 AM 66.0 °F 55.9 °F 70% 30.03 in 10.0 mi SSW 4.6 mph - N/A   Clear
12:53 PM 66.0 °F 55.0 °F 68% 30.03 in 10.0 mi SSW 8.1 mph - N/A   Clear
1:53 PM 68.0 °F 55.9 °F 65% 30.03 in 10.0 mi SSW 9.2 mph - N/A   Clear
2:53 PM 69.1 °F 55.0 °F 61% 30.02 in 10.0 mi SW 6.9 mph - N/A   Clear
3:53 PM 64.9 °F 54.0 °F 68% 30.02 in 10.0 mi SW 6.9 mph - N/A   Clear
4:53 PM 64.0 °F 54.0 °F 70% 30.01 in 10.0 mi SSW 8.1 mph - N/A   Clear
5:53 PM 61.0 °F 53.1 °F 75% 30.02 in 10.0 mi SSW 8.1 mph - N/A   Clear
6:53 PM 59.0 °F 53.1 °F 81% 30.01 in 10.0 mi SW 8.1 mph - N/A   Clear
7:53 PM 55.0 °F 52.0 °F 89% 30.03 in 10.0 mi SW 6.9 mph - N/A   Clear
8:08 PM 55.4 °F 51.8 °F 88% 30.03 in 10.0 mi SW 6.9 mph - N/A   Scattered Clouds
8:23 PM 55.4 °F 51.8 °F 88% 30.03 in 10.0 mi SSW 4.6 mph - N/A   Mostly Cloudy
8:53 PM 55.0 °F 52.0 °F 89% 30.04 in 10.0 mi West 6.9 mph - N/A   Overcast
9:53 PM 55.0 °F 52.0 °F 89% 30.05 in 10.0 mi West 3.5 mph - N/A   Overcast
10:53 PM 55.0 °F 52.0 °F 89% 30.04 in 10.0 mi WNW 4.6 mph - N/A   Overcast
11:53 PM 55.0 °F 52.0 °F 89% 30.04 in 10.0 mi Variable 3.5 mph - N/A   Overcast